Time,TemperatureF,DewpointF,PressureIn,WindDirection,WindDirectionDegrees,WindSpeedMPH,WindSpeedGustMPH,Humidity,HourlyPrecipIn,Conditions,Clouds,dailyrainin,SoftwareType,DateUTC
2013-07-06 00:53:00,71.0,70.0,-100.00,South,175,4.0,6.0,94,0.00,,,-99.99,,2013-07-06 04:53:00,
2013-07-06 01:02:00,71.0,70.0,-100.00,South,175,4.0,6.0,94,0.00,,,-99.99,,2013-07-06 05:02:00,
2013-07-06 01:22:00,71.0,70.0,-100.00,SSW,195,5.0,7.0,94,0.00,,,-99.99,,2013-07-06 05:22:00,
2013-07-06 01:33:00,72.0,70.0,-100.00,SSW,205,5.0,9.0,94,0.00,,,-99.99,,2013-07-06 05:33:00,
2013-07-06 01:42:00,72.0,70.0,-100.00,SSW,205,5.0,9.0,94,0.00,,,-99.99,,2013-07-06 05:42:00,
2013-07-06 01:53:00,71.0,70.0,-100.00,SW,215,4.0,6.0,94,0.00,,,-99.99,,2013-07-06 05:53:00,
2013-07-06 02:02:00,71.0,70.0,-100.00,SSW,205,4.0,6.0,94,0.00,,,-99.99,,2013-07-06 06:02:00,
2013-07-06 02:12:00,71.0,70.0,-100.00,SSW,205,4.0,6.0,94,0.00,,,-99.99,,2013-07-06 06:12:00,
2013-07-06 02:22:00,71.0,69.0,-100.00,SSW,200,4.0,6.0,94,0.00,,,-99.99,,2013-07-06 06:22:00,
2013-07-06 02:34:00,71.0,70.0,-100.00,SW,215,4.0,7.0,95,0.00,,,-99.99,,2013-07-06 06:34:00,
2013-07-06 02:43:00,71.0,70.0,-100.00,SW,215,4.0,7.0,95,0.00,,,-99.99,,2013-07-06 06:43:00,
2013-07-06 02:53:00,71.0,69.0,-100.00,SSW,210,4.0,6.0,95,0.00,,,-99.99,,2013-07-06 06:53:00,
2013-07-06 03:02:00,71.0,69.0,-100.00,SSW,210,4.0,6.0,95,0.00,,,-99.99,,2013-07-06 07:02:00,
2013-07-06 03:12:00,71.0,69.0,-100.00,WSW,240,4.0,5.0,96,0.00,,,-99.99,,2013-07-06 07:12:00,
2013-07-06 03:22:00,71.0,69.0,-100.00,WSW,240,4.0,5.0,96,0.00,,,-99.99,,2013-07-06 07:22:00,
2013-07-06 03:33:00,70.0,69.0,-100.00,SW,215,3.0,4.0,96,0.00,,,-99.99,,2013-07-06 07:33:00,
2013-07-06 03:44:00,70.0,69.0,-100.00,SW,225,4.0,4.0,96,0.00,,,-99.99,,2013-07-06 07:44:00,
2013-07-06 03:52:00,70.0,69.0,-100.00,SW,225,4.0,4.0,96,0.00,,,-99.99,,2013-07-06 07:52:00,
2013-07-06 04:02:00,70.0,69.0,-100.00,SSW,205,4.0,6.0,96,0.00,,,-99.99,,2013-07-06 08:02:00,
2013-07-06 04:12:00,70.0,69.0,-100.00,SSW,205,4.0,6.0,96,0.00,,,-99.99,,2013-07-06 08:12:00,
2013-07-06 04:21:00,70.0,69.0,-100.00,SSW,205,4.0,6.0,96,0.00,,,-99.99,,2013-07-06 08:21:00,
2013-07-06 04:34:00,70.0,69.0,-100.00,SSW,205,3.0,4.0,96,0.00,,,-99.99,,2013-07-06 08:34:00,
2013-07-06 04:43:00,70.0,69.0,-100.00,SSW,205,3.0,4.0,96,0.00,,,-99.99,,2013-07-06 08:43:00,
2013-07-06 04:54:00,70.0,69.0,-100.00,SSW,205,3.0,4.0,96,0.00,,,-99.99,,2013-07-06 08:54:00,
2013-07-06 05:02:00,70.0,69.0,-100.00,SW,225,4.0,4.0,96,0.00,,,-99.99,,2013-07-06 09:02:00,
2013-07-06 05:11:00,69.0,69.0,-100.00,SW,220,4.0,4.0,96,0.00,,,-99.99,,2013-07-06 09:11:00,
2013-07-06 05:52:00,69.0,68.0,-100.00,WSW,245,0.0,1.0,96,0.00,,,-99.99,,2013-07-06 09:52:00,
2013-07-06 06:02:00,69.0,68.0,-100.00,SSW,195,0.0,1.0,97,0.00,,,-99.99,,2013-07-06 10:02:00,
2013-07-06 06:11:00,69.0,68.0,-100.00,SW,225,1.0,2.0,97,0.00,,,-99.99,,2013-07-06 10:11:00,
2013-07-06 06:22:00,69.0,68.0,-100.00,SW,225,1.0,2.0,97,0.00,,,-99.99,,2013-07-06 10:22:00,
2013-07-06 06:33:00,68.0,67.0,-100.00,SE,130,1.0,2.0,97,0.00,,,-99.99,,2013-07-06 10:33:00,
2013-07-06 06:42:00,68.0,67.0,-100.00,SSE,160,2.0,2.0,97,0.00,,,-99.99,,2013-07-06 10:42:00,
2013-07-06 06:53:00,67.0,67.0,-100.00,SSE,150,0.0,1.0,97,0.00,,,-99.99,,2013-07-06 10:53:00,
2013-07-06 07:11:00,67.0,67.0,-100.00,SSE,160,2.0,4.0,97,0.00,,,-99.99,,2013-07-06 11:11:00,
2013-07-06 07:33:00,68.0,67.0,-100.00,SSE,150,4.0,5.0,97,0.00,,,-99.99,,2013-07-06 11:33:00,
2013-07-06 07:53:00,68.0,68.0,-100.00,SSE,150,3.0,3.0,97,0.00,,,-99.99,,2013-07-06 11:53:00,
2013-07-06 08:01:00,68.0,68.0,-100.00,SSE,155,3.0,4.0,97,0.00,,,-99.99,,2013-07-06 12:01:00,
2013-07-06 08:12:00,70.0,69.0,-100.00,SSE,155,6.0,7.0,97,0.00,,,-99.99,,2013-07-06 12:12:00,
2013-07-06 08:33:00,70.0,70.0,-100.00,South,170,3.0,7.0,97,0.00,,,-99.99,,2013-07-06 12:33:00,
2013-07-06 08:43:00,71.0,70.0,-100.00,South,170,6.0,8.0,97,0.00,,,-99.99,,2013-07-06 12:43:00,
2013-07-06 08:52:00,71.0,71.0,-100.00,SSE,165,4.0,7.0,97,0.00,,,-99.99,,2013-07-06 12:52:00,
2013-07-06 09:01:00,73.0,72.0,-100.00,SSE,165,2.0,6.0,97,0.00,,,-99.99,,2013-07-06 13:01:00,
2013-07-06 09:12:00,73.0,72.0,-100.00,SSW,195,1.0,4.0,97,0.00,,,-99.99,,2013-07-06 13:12:00,
2013-07-06 09:22:00,73.0,72.0,-100.00,South,170,6.0,6.0,97,0.00,,,-99.99,,2013-07-06 13:22:00,
2013-07-06 09:33:00,73.0,72.0,-100.00,South,170,6.0,6.0,97,0.00,,,-99.99,,2013-07-06 13:33:00,
2013-07-06 09:43:00,73.0,73.0,-100.00,SSE,165,4.0,6.0,97,0.00,,,-99.99,,2013-07-06 13:43:00,
2013-07-06 09:52:00,74.0,73.0,-100.00,South,170,4.0,6.0,97,0.00,,,-99.99,,2013-07-06 13:52:00,
2013-07-06 10:02:00,74.0,73.0,-100.00,SSE,160,4.0,6.0,97,0.00,,,-99.99,,2013-07-06 14:02:00,
2013-07-06 10:12:00,74.0,73.0,-100.00,South,185,4.0,7.0,97,0.00,,,-99.99,,2013-07-06 14:12:00,
2013-07-06 10:22:00,74.0,73.0,-100.00,SE,145,3.0,6.0,96,0.00,,,-99.99,,2013-07-06 14:22:00,
2013-07-06 10:34:00,75.0,74.0,-100.00,SSE,165,2.0,4.0,96,0.00,,,-99.99,,2013-07-06 14:34:00,
2013-07-06 10:42:00,75.0,74.0,-100.00,SSE,165,2.0,4.0,96,0.00,,,-99.99,,2013-07-06 14:42:00,
2013-07-06 10:53:00,75.0,74.0,-100.00,SSE,160,4.0,6.0,95,0.00,,,-99.99,,2013-07-06 14:53:00,
2013-07-06 11:02:00,75.0,74.0,-100.00,SSW,200,4.0,6.0,94,0.00,,,-99.99,,2013-07-06 15:02:00,
2013-07-06 11:12:00,75.0,74.0,-100.00,SSW,195,4.0,6.0,94,0.00,,,-99.99,,2013-07-06 15:12:00,
2013-07-06 11:22:00,76.0,74.0,-100.00,SSE,165,4.0,6.0,94,0.00,,,-99.99,,2013-07-06 15:22:00,
2013-07-06 11:33:00,76.0,74.0,-100.00,South,170,3.0,6.0,93,0.00,,,-99.99,,2013-07-06 15:33:00,
2013-07-06 11:43:00,76.0,74.0,-100.00,South,185,3.0,6.0,92,0.00,,,-99.99,,2013-07-06 15:43:00,
2013-07-06 11:53:00,76.0,73.0,-100.00,South,175,4.0,6.0,91,0.00,,,-99.99,,2013-07-06 15:53:00,
2013-07-06 12:07:00,77.0,74.0,-100.00,SSW,200,3.0,6.0,90,0.00,,,-99.99,,2013-07-06 16:07:00,
2013-07-06 12:15:00,77.0,74.0,-100.00,SE,135,6.0,7.0,89,0.00,,,-99.99,,2013-07-06 16:15:00,
2013-07-06 12:26:00,77.0,73.0,-100.00,SSE,150,4.0,9.0,88,0.00,,,-99.99,,2013-07-06 16:26:00,
2013-07-06 12:45:00,77.0,73.0,-100.00,South,175,6.0,7.0,88,0.00,,,-99.99,,2013-07-06 16:45:00,
2013-07-06 12:54:00,77.0,73.0,-100.00,South,175,4.0,9.0,88,0.00,,,-99.99,,2013-07-06 16:54:00,
2013-07-06 13:02:00,78.0,74.0,-100.00,SE,140,4.0,6.0,87,0.00,,,-99.99,,2013-07-06 17:02:00,
2013-07-06 13:14:00,78.0,73.0,-100.00,SE,135,3.0,6.0,84,0.00,,,-99.99,,2013-07-06 17:14:00,
2013-07-06 13:44:00,78.0,73.0,-100.00,ESE,115,6.0,9.0,84,1.10,,,-99.99,,2013-07-06 17:44:00,
2013-07-06 14:02:00,75.0,73.0,-100.00,South,180,4.0,4.0,92,16.42,,,-99.99,,2013-07-06 18:02:00,
2013-07-06 14:25:00,77.0,75.0,-100.00,NW,305,1.0,2.0,94,0.00,,,-99.99,,2013-07-06 18:25:00,
2013-07-06 14:34:00,80.0,77.0,-100.00,NW,305,3.0,5.0,93,0.00,,,-99.99,,2013-07-06 18:34:00,
2013-07-06 14:45:00,79.0,76.0,-100.00,NW,315,5.0,7.0,90,0.00,,,-99.99,,2013-07-06 18:45:00,
2013-07-06 14:54:00,79.0,75.0,-100.00,NNE,15,4.0,7.0,87,0.00,,,-99.99,,2013-07-06 18:54:00,
2013-07-06 15:13:00,78.0,74.0,-100.00,North,350,3.0,7.0,87,0.00,,,-99.99,,2013-07-06 19:13:00,
2013-07-06 15:31:00,78.0,74.0,-100.00,NNW,345,3.0,8.0,87,0.00,,,-99.99,,2013-07-06 19:31:00,
2013-07-06 15:45:00,78.0,73.0,-100.00,NNE,15,4.0,9.0,86,0.00,,,-99.99,,2013-07-06 19:45:00,
2013-07-06 15:54:00,77.0,73.0,-100.00,NNE,30,7.0,9.0,86,0.00,,,-99.99,,2013-07-06 19:54:00,
2013-07-06 16:24:00,72.0,71.0,-100.00,SW,215,7.0,14.0,96,-99.99,,,-99.99,,2013-07-06 20:24:00,
2013-07-06 16:46:00,72.0,71.0,-100.00,West,280,4.0,9.0,96,0.00,,,-99.99,,2013-07-06 20:46:00,
2013-07-06 17:01:00,73.0,72.0,-100.00,NNW,330,4.0,6.0,96,0.00,,,-99.99,,2013-07-06 21:01:00,
2013-07-06 17:14:00,73.0,73.0,-100.00,NW,305,6.0,8.0,96,0.00,,,-99.99,,2013-07-06 21:14:00,
2013-07-06 17:21:00,73.0,72.0,-100.00,NNW,330,4.0,11.0,96,0.00,,,-99.99,,2013-07-06 21:21:00,
2013-07-06 17:34:00,73.0,72.0,-100.00,NNW,330,4.0,11.0,96,0.00,,,-99.99,,2013-07-06 21:34:00,
2013-07-06 18:00:00,73.0,73.0,-100.00,North,350,4.0,6.0,96,0.00,,,-99.99,,2013-07-06 22:00:00,
2013-07-06 18:33:00,75.0,74.0,-100.00,North,0,1.0,7.0,96,0.00,,,-99.99,,2013-07-06 22:33:00,
2013-07-06 18:45:00,75.0,74.0,-100.00,NNE,20,3.0,7.0,95,0.00,,,-99.99,,2013-07-06 22:45:00,
2013-07-06 18:54:00,75.0,73.0,-100.00,NNE,30,5.0,7.0,94,0.00,,,-99.99,,2013-07-06 22:54:00,
2013-07-06 19:01:00,75.0,74.0,-100.00,NE,40,4.0,7.0,94,0.00,,,-99.99,,2013-07-06 23:01:00,
2013-07-06 19:23:00,75.0,74.0,-100.00,NE,55,4.0,4.0,94,0.00,,,-99.99,,2013-07-06 23:23:00,
2013-07-06 19:33:00,75.0,74.0,-100.00,NNE,20,2.0,4.0,94,0.00,,,-99.99,,2013-07-06 23:33:00,
2013-07-06 19:53:00,75.0,73.0,-100.00,East,95,3.0,4.0,94,0.00,,,-99.99,,2013-07-06 23:53:00,
2013-07-06 20:02:00,75.0,74.0,-100.00,SE,135,4.0,4.0,94,0.00,,,-99.99,,2013-07-07 00:02:00,
2013-07-06 20:24:00,74.0,73.0,-100.00,ESE,115,4.0,4.0,94,0.00,,,-99.99,,2013-07-07 00:24:00,
2013-07-06 20:33:00,74.0,73.0,-100.00,ESE,105,4.0,6.0,94,0.00,,,-99.99,,2013-07-07 00:33:00,
2013-07-06 21:01:00,73.0,72.0,-100.00,SSE,155,2.0,4.0,96,0.00,,,-99.99,,2013-07-07 01:01:00,
2013-07-06 21:14:00,73.0,72.0,-100.00,South,175,4.0,4.0,96,0.00,,,-99.99,,2013-07-07 01:14:00,
2013-07-06 21:23:00,73.0,71.0,-100.00,SE,140,0.0,4.0,96,0.00,,,-99.99,,2013-07-07 01:23:00,
2013-07-06 21:43:00,73.0,71.0,-100.00,SE,140,0.0,4.0,96,0.00,,,-99.99,,2013-07-07 01:43:00,
2013-07-06 21:53:00,72.0,71.0,-100.00,SE,140,2.0,3.0,96,0.00,,,-99.99,,2013-07-07 01:53:00,
2013-07-06 22:00:00,72.0,71.0,-100.00,SSE,155,3.0,4.0,96,0.00,,,-99.99,,2013-07-07 02:00:00,
2013-07-06 22:14:00,72.0,71.0,-100.00,South,180,3.0,4.0,96,0.00,,,-99.99,,2013-07-07 02:14:00,
2013-07-06 22:22:00,72.0,71.0,-100.00,South,180,2.0,4.0,96,0.00,,,-99.99,,2013-07-07 02:22:00,
2013-07-06 22:40:00,72.0,71.0,-100.00,SSE,165,4.0,6.0,96,0.00,,,-99.99,,2013-07-07 02:40:00,
2013-07-06 22:56:00,72.0,71.0,-100.00,South,185,6.0,7.0,96,0.00,,,-99.99,,2013-07-07 02:56:00,
2013-07-06 23:13:00,72.0,71.0,-100.00,South,185,6.0,7.0,96,0.00,,,-99.99,,2013-07-07 03:13:00,
2013-07-06 23:30:00,72.0,71.0,-100.00,South,180,5.0,7.0,96,0.00,,,-99.99,,2013-07-07 03:30:00,
2013-07-06 23:57:00,71.0,70.0,-100.00,SSW,210,6.0,9.0,97,0.00,,,-99.99,,2013-07-07 03:57:00,